Location: 22
(39.7117°N, 89.5929°W)
Time: 07:03:05
(UTC-05:00)

deb Explorer IX - Pass Details

Date: 24 April 2025
Orbit: 386 x 450 km, 38.6° (Epoch: 05 May)

Event Time Altitude Azimuth Distance (km) Brightness Sun altitude
Rises 21:13:42 0° 275° (W) 2,315 ? -16.0°
Reaches altitude 10° 21:15:52 10° 270° (W) 1,437 ? -16.4°
Maximum altitude 21:19:00 48° 194° (SSW) 517 ? -16.9°
Enters shadow 21:19:24 44° 168° (SSE) 544 ? -16.9°
